| time (UTC) | temp F | wind direction | speed MPH | gust MPH | rain 1hr in | rain 24hr in | rain mn in | humidity % | barometer mb |
| 20260510182503 | 61 | 5 | 2.0 | 9.0 | 0.00 | 0.00 | 0.00 | 38 | 1019.7 |
| 20260510182009 | 60 | 248 | 1.0 | 5.0 | 0.00 | 0.00 | 0.00 | 38 | 1019.6 |
| 20260510181523 | 60 | 349 | 2.0 | 5.0 | 0.00 | 0.00 | 0.00 | 38 | 1019.7 |
| 20260510181005 | 60 | 288 | 2.0 | 5.0 | 0.00 | 0.00 | 0.00 | 36 | 1019.6 |
| 20260510180506 | 61 | 211 | 2.0 | 9.0 | 0.00 | 0.00 | 0.00 | 35 | 1019.7 |
| 20260510180021 | 61 | 326 | 2.0 | 9.0 | 0.00 | 0.00 | 0.00 | 35 | 1019.7 |
| 20260510175507 | 61 | 329 | 1.0 | 13.0 | 0.00 | 0.00 | 0.00 | 37 | 1019.6 |
| 20260510175006 | 61 | 302 | 4.0 | 13.0 | 0.00 | 0.00 | 0.00 | 36 | 1019.7 |
| 20260510174512 | 62 | 123 | 1.0 | 4.0 | 0.00 | 0.00 | 0.00 | 35 | 1019.6 |
| 20260510174008 | 62 | 250 | 1.0 | 4.0 | 0.00 | 0.00 | 0.00 | 39 | 1019.6 |
| 20260510173503 | 62 | 344 | 1.0 | 11.0 | 0.00 | 0.00 | 0.00 | 38 | 1019.6 |
| 20260510173014 | 62 | 290 | 1.0 | 12.0 | 0.00 | 0.00 | 0.00 | 36 | 1019.7 |
| 20260510172506 | 62 | 282 | 2.0 | 12.0 | 0.00 | 0.00 | 0.00 | 38 | 1019.7 |
| 20260510172010 | 61 | 334 | 3.0 | 8.0 | 0.00 | 0.00 | 0.00 | 36 | 1019.6 |
| 20260510171514 | 61 | 345 | 1.0 | 9.0 | 0.00 | 0.00 | 0.00 | 38 | 1019.6 |
| 20260510171005 | 61 | 35 | 1.0 | 9.0 | 0.00 | 0.00 | 0.00 | 34 | 1019.6 |
| 20260510170506 | 61 | 344 | 2.0 | 8.0 | 0.00 | 0.00 | 0.00 | 38 | 1019.7 |
| 20260510170015 | 60 | 236 | 2.0 | 9.0 | 0.00 | 0.00 | 0.00 | 38 | 1019.7 |
| 20260510165505 | 60 | 302 | 3.0 | 9.0 | 0.00 | 0.00 | 0.00 | 36 | 1019.8 |
| 20260510165009 | 60 | 116 | 2.0 | 8.0 | 0.00 | 0.00 | 0.00 | 37 | 1019.7 |
| 20260510164514 | 60 | 331 | 2.0 | 8.0 | 0.00 | 0.00 | 0.00 | 39 | 1019.7 |
| 20260510164007 | 59 | 298 | 1.0 | 7.0 | 0.00 | 0.00 | 0.00 | 40 | 1019.7 |
| 20260510163505 | 60 | 251 | 1.0 | 7.0 | 0.00 | 0.00 | 0.00 | 39 | 1019.8 |
| 20260510163014 | 59 | 284 | 2.0 | 6.0 | 0.00 | 0.00 | 0.00 | 43 | 1019.8 |
| 20260510162508 | 59 | 22 | 1.0 | 5.0 | 0.00 | 0.00 | 0.00 | 39 | 1019.8 |
| 20260510162006 | 59 | 5 | 1.0 | 6.0 | 0.00 | 0.00 | 0.00 | 40 | 1019.8 |
| 20260510161513 | 59 | 311 | 1.0 | 6.0 | 0.00 | 0.00 | 0.00 | 39 | 1019.8 |
| 20260510161011 | 59 | 5 | 1.0 | 5.0 | 0.00 | 0.00 | 0.00 | 39 | 1019.8 |
| 20260510160507 | 59 | 15 | 0.0 | 8.0 | 0.00 | 0.00 | 0.00 | 39 | 1019.8 |
| 20260510160024 | 58 | 247 | 2.0 | 8.0 | 0.00 | 0.00 | 0.00 | 40 | 1019.8 |
| 20260510155506 | 58 | 21 | 2.0 | 7.0 | 0.00 | 0.00 | 0.00 | 40 | 1019.7 |
| 20260510155006 | 58 | 352 | 2.0 | 6.0 | 0.00 | 0.00 | 0.00 | 40 | 1019.7 |
| 20260510154518 | 57 | 38 | 2.0 | 6.0 | 0.00 | 0.00 | 0.00 | 44 | 1019.8 |
| 20260510154006 | 56 | 15 | 1.0 | 5.0 | 0.00 | 0.00 | 0.00 | 44 | 1019.7 |
| 20260510153506 | 56 | 246 | 0.0 | 5.0 | 0.00 | 0.00 | 0.00 | 41 | 1019.6 |
| 20260510153033 | 56 | 40 | 1.0 | 6.0 | 0.00 | 0.00 | 0.00 | 42 | 1019.6 |
| 20260510152505 | 56 | 28 | 2.0 | 6.0 | 0.00 | 0.00 | 0.00 | 43 | 1019.7 |
| 20260510152010 | 56 | 38 | 1.0 | 6.0 | 0.00 | 0.00 | 0.00 | 42 | 1019.6 |
| 20260510151518 | 56 | 325 | 2.0 | 6.0 | 0.00 | 0.00 | 0.00 | 43 | 1019.8 |
| 20260510151008 | 56 | 325 | 2.0 | 8.0 | 0.00 | 0.00 | 0.00 | 46 | 1019.7 |
| 20260510150507 | 55 | 342 | 1.0 | 8.0 | 0.00 | 0.00 | 0.00 | 46 | 1019.7 |
| 20260510150019 | 55 | 302 | 1.0 | 6.0 | 0.00 | 0.00 | 0.00 | 46 | 1019.7 |
| 20260510145507 | 55 | 360 | 1.0 | 6.0 | 0.00 | 0.00 | 0.00 | 46 | 1019.7 |
| 20260510145012 | 54 | 257 | 2.0 | 9.0 | 0.00 | 0.00 | 0.00 | 48 | 1019.7 |
| 20260510144527 | 53 | 312 | 1.0 | 9.0 | 0.00 | 0.00 | 0.00 | 45 | 1019.8 |
| 20260510144010 | 53 | 343 | 2.0 | 9.0 | 0.00 | 0.00 | 0.00 | 47 | 1019.7 |
| 20260510143507 | 53 | 281 | 2.0 | 9.0 | 0.00 | 0.00 | 0.00 | 45 | 1019.7 |
| 20260510143028 | 53 | 251 | 0.0 | 3.0 | 0.00 | 0.00 | 0.00 | 49 | 1019.6 |
| 20260510142510 | 52 | 352 | 2.0 | 5.0 | 0.00 | 0.00 | 0.00 | 50 | 1019.6 |
| 20260510142007 | 52 | 346 | 2.0 | 8.0 | 0.00 | 0.00 | 0.00 | 49 | 1019.5 |
| 20260510141521 | 51 | 34 | 1.0 | 8.0 | 0.00 | 0.00 | 0.00 | 48 | 1019.5 |
| 20260510141005 | 51 | 319 | 3.0 | 6.0 | 0.00 | 0.00 | 0.00 | 50 | 1019.6 |
| 20260510140507 | 51 | 5 | 2.0 | 6.0 | 0.00 | 0.00 | 0.00 | 49 | 1019.5 |
| 20260510140025 | 50 | 277 | 1.0 | 7.0 | 0.00 | 0.00 | 0.00 | 51 | 1019.5 |
| 20260510135507 | 50 | 325 | 2.0 | 7.0 | 0.00 | 0.00 | 0.00 | 51 | 1019.5 |
| 20260510135010 | 49 | 321 | 1.0 | 8.0 | 0.00 | 0.00 | 0.00 | 54 | 1019.5 |
| 20260510134522 | 47 | 9 | 1.0 | 8.0 | 0.00 | 0.00 | 0.00 | 57 | 1019.4 |
| 20260510134008 | 44 | 352 | 2.0 | 5.0 | 0.00 | 0.00 | 0.00 | 64 | 1019.4 |
| 20260510133508 | 42 | 277 | 0.0 | 5.0 | 0.00 | 0.00 | 0.00 | 67 | 1019.3 |
| 20260510133036 | 41 | 317 | 0.0 | 4.0 | 0.00 | 0.00 | 0.00 | 69 | 1019.3 |
| 20260510132511 | 40 | 323 | 1.0 | 4.0 | 0.00 | 0.00 | 0.00 | 71 | 1019.4 |
| 20260510132007 | 40 | 360 | 0.0 | 5.0 | 0.00 | 0.00 | 0.00 | 73 | 1019.4 |
| 20260510131521 | 39 | 331 | 1.0 | 5.0 | 0.00 | 0.00 | 0.00 | 75 | 1019.3 |
| 20260510131009 | 38 | 337 | 0.0 | 3.0 | 0.00 | 0.00 | 0.00 | 76 | 1019.3 |
| 20260510130507 | 37 | 13 | 1.0 | 3.0 | 0.00 | 0.00 | 0.00 | 79 | 1019.3 |
| 20260510130023 | 36 | 308 | 0.0 | 2.0 | 0.00 | 0.00 | 0.00 | 80 | 1019.1 |
| 20260510125509 | 35 | 252 | 0.0 | 2.0 | 0.00 | 0.00 | 0.00 | 80 | 1019.0 |
| 20260510125006 | 35 | 277 | 0.0 | 1.0 | 0.00 | 0.00 | 0.00 | 80 | 1018.9 |
| 20260510124522 | 34 | 277 | 0.0 | 0.0 | 0.00 | 0.00 | 0.00 | 79 | 1018.9 |
| 20260510124012 | 34 | 277 | 0.0 | 0.0 | 0.00 | 0.00 | 0.00 | 79 | 1018.9 |
| 20260510123503 | 33 | 277 | 0.0 | 0.0 | 0.00 | 0.00 | 0.00 | 78 | 1018.9 |
| 20260510123003 | 33 | 277 | 0.0 | 0.0 | 0.00 | 0.00 | 0.00 | 78 | 1018.8 |
| 20260510122503 | 33 | 277 | 0.0 | 0.0 | 0.00 | 0.00 | 0.00 | 77 | 1018.7 |
| 20260510122003 | 33 | 277 | 0.0 | 0.0 | 0.00 | 0.00 | 0.00 | 77 | 1018.7 |
| 20260510121509 | 32 | 277 | 0.0 | 0.0 | 0.00 | 0.00 | 0.00 | 76 | 1018.6 |
| 20260510121006 | 32 | 277 | 0.0 | 1.0 | 0.00 | 0.00 | 0.00 | 76 | 1018.5 |
| 20260510120504 | 32 | 277 | 0.0 | 2.0 | 0.00 | 0.00 | 0.00 | 75 | 1018.4 |
| 20260510120022 | 32 | 277 | 0.0 | 2.0 | 0.00 | 0.00 | 0.00 | 75 | 1018.4 |
| 20260510115504 | 32 | 336 | 0.0 | 0.0 | 0.00 | 0.00 | 0.00 | 73 | 1018.4 |
| 20260510115007 | 32 | 336 | 0.0 | 0.0 | 0.00 | 0.00 | 0.00 | 72 | 1018.4 |
| 20260510114525 | 32 | 336 | 0.0 | 0.0 | 0.00 | 0.00 | 0.00 | 72 | 1018.4 |
| 20260510114004 | 32 | 336 | 0.0 | 0.0 | 0.00 | 0.00 | 0.00 | 71 | 1018.3 |
| 20260510113507 | 32 | 336 | 0.0 | 0.0 | 0.00 | 0.00 | 0.00 | 71 | 1018.4 |
| 20260510113024 | 32 | 336 | 0.0 | 0.0 | 0.00 | 0.00 | 0.00 | 71 | 1018.3 |
| 20260510112506 | 32 | 336 | 0.0 | 0.0 | 0.00 | 0.00 | 0.00 | 70 | 1018.1 |
| 20260510112004 | 32 | 336 | 0.0 | 0.0 | 0.00 | 0.00 | 0.00 | 70 | 1018.0 |
| 20260510111518 | 32 | 336 | 0.0 | 0.0 | 0.00 | 0.00 | 0.00 | 70 | 1018.1 |
| 20260510111003 | 32 | 336 | 0.0 | 0.0 | 0.00 | 0.00 | 0.00 | 70 | 1018.1 |
| 20260510110510 | 32 | 336 | 0.0 | 0.0 | 0.00 | 0.00 | 0.00 | 70 | 1018.2 |
| 20260510110014 | 32 | 336 | 0.0 | 0.0 | 0.00 | 0.00 | 0.00 | 70 | 1018.2 |
| 20260510105504 | 32 | 336 | 0.0 | 0.0 | 0.00 | 0.00 | 0.00 | 69 | 1018.0 |
| 20260510105008 | 33 | 336 | 0.0 | 0.0 | 0.00 | 0.00 | 0.00 | 69 | 1018.0 |
| 20260510104511 | 33 | 336 | 0.0 | 0.0 | 0.00 | 0.00 | 0.00 | 69 | 1017.9 |
| 20260510104006 | 33 | 336 | 0.0 | 0.0 | 0.00 | 0.00 | 0.00 | 69 | 1017.9 |
| 20260510103507 | 33 | 336 | 0.0 | 0.0 | 0.00 | 0.00 | 0.00 | 68 | 1017.9 |
| 20260510103021 | 33 | 336 | 0.0 | 0.0 | 0.00 | 0.00 | 0.00 | 68 | 1017.8 |
| 20260510102503 | 33 | 336 | 0.0 | 0.0 | 0.00 | 0.00 | 0.00 | 68 | 1017.7 |
| 20260510102009 | 33 | 336 | 0.0 | 0.0 | 0.00 | 0.00 | 0.00 | 68 | 1017.6 |
| 20260510101526 | 33 | 336 | 0.0 | 0.0 | 0.00 | 0.00 | 0.00 | 67 | 1017.5 |
| 20260510101004 | 34 | 336 | 0.0 | 0.0 | 0.00 | 0.00 | 0.00 | 67 | 1017.5 |
| 20260510100504 | 34 | 336 | 0.0 | 0.0 | 0.00 | 0.00 | 0.00 | 67 | 1017.4 |
| 20260510100022 | 34 | 336 | 0.0 | 0.0 | 0.00 | 0.00 | 0.00 | 67 | 1017.3 |
| 20260510095508 | 34 | 336 | 0.0 | 0.0 | 0.00 | 0.00 | 0.00 | 67 | 1017.3 |
| 20260510095004 | 34 | 336 | 0.0 | 0.0 | 0.00 | 0.00 | 0.00 | 66 | 1017.2 |
| 20260510094513 | 34 | 336 | 0.0 | 0.0 | 0.00 | 0.00 | 0.00 | 66 | 1017.3 |
| 20260510094005 | 35 | 336 | 0.0 | 0.0 | 0.00 | 0.00 | 0.00 | 65 | 1017.2 |
| 20260510093508 | 35 | 336 | 0.0 | 0.0 | 0.00 | 0.00 | 0.00 | 65 | 1017.2 |
| 20260510093016 | 35 | 336 | 0.0 | 0.0 | 0.00 | 0.00 | 0.00 | 65 | 1017.1 |
| 20260510092507 | 35 | 336 | 0.0 | 0.0 | 0.00 | 0.00 | 0.00 | 64 | 1017.2 |
| 20260510092008 | 35 | 336 | 0.0 | 0.0 | 0.00 | 0.00 | 0.00 | 64 | 1017.1 |
| 20260510091515 | 35 | 336 | 0.0 | 0.0 | 0.00 | 0.00 | 0.00 | 64 | 1017.0 |
| 20260510091007 | 36 | 336 | 0.0 | 0.0 | 0.00 | 0.00 | 0.00 | 64 | 1017.0 |
| 20260510090512 | 36 | 336 | 0.0 | 0.0 | 0.00 | 0.00 | 0.00 | 63 | 1017.0 |
| 20260510090025 | 36 | 336 | 0.0 | 0.0 | 0.00 | 0.00 | 0.00 | 63 | 1016.9 |
| 20260510085506 | 36 | 336 | 0.0 | 0.0 | 0.00 | 0.00 | 0.00 | 62 | 1016.9 |
| 20260510085010 | 36 | 336 | 0.0 | 0.0 | 0.00 | 0.00 | 0.00 | 62 | 1016.9 |
| 20260510084524 | 37 | 336 | 0.0 | 0.0 | 0.00 | 0.00 | 0.00 | 62 | 1016.8 |
| 20260510084011 | 37 | 336 | 0.0 | 0.0 | 0.00 | 0.00 | 0.00 | 62 | 1016.7 |
| 20260510083506 | 37 | 336 | 0.0 | 0.0 | 0.00 | 0.00 | 0.00 | 62 | 1016.6 |
| 20260510083013 | 37 | 336 | 0.0 | 0.0 | 0.00 | 0.00 | 0.00 | 61 | 1016.5 |
| 20260510082507 | 37 | 336 | 0.0 | 0.0 | 0.00 | 0.00 | 0.00 | 60 | 1016.5 |
| 20260510082007 | 38 | 336 | 0.0 | 0.0 | 0.00 | 0.00 | 0.00 | 60 | 1016.4 |
| 20260510081519 | 38 | 336 | 0.0 | 0.0 | 0.00 | 0.00 | 0.00 | 59 | 1016.3 |
| 20260510081007 | 38 | 336 | 0.0 | 0.0 | 0.00 | 0.00 | 0.00 | 59 | 1016.2 |
| 20260510080507 | 38 | 336 | 0.0 | 0.0 | 0.00 | 0.00 | 0.00 | 59 | 1016.2 |
| 20260510080021 | 39 | 336 | 0.0 | 0.0 | 0.00 | 0.00 | 0.00 | 58 | 1016.2 |
| 20260510075509 | 39 | 336 | 0.0 | 0.0 | 0.00 | 0.00 | 0.00 | 58 | 1016.1 |
| 20260510075009 | 39 | 336 | 0.0 | 0.0 | 0.00 | 0.00 | 0.00 | 58 | 1016.1 |
| 20260510074515 | 39 | 336 | 0.0 | 0.0 | 0.00 | 0.00 | 0.00 | 58 | 1016.1 |
| 20260510074012 | 39 | 336 | 0.0 | 0.0 | 0.00 | 0.00 | 0.00 | 58 | 1016.1 |
| 20260510073508 | 39 | 336 | 0.0 | 0.0 | 0.00 | 0.00 | 0.00 | 58 | 1016.1 |
| 20260510073033 | 40 | 336 | 0.0 | 0.0 | 0.00 | 0.00 | 0.00 | 58 | 1016.1 |
| 20260510072505 | 40 | 336 | 0.0 | 0.0 | 0.00 | 0.00 | 0.00 | 57 | 1016.0 |
| 20260510072010 | 40 | 336 | 0.0 | 0.0 | 0.00 | 0.00 | 0.00 | 58 | 1016.0 |
| 20260510071528 | 40 | 336 | 0.0 | 0.0 | 0.00 | 0.00 | 0.00 | 58 | 1016.0 |
| 20260510071006 | 40 | 336 | 0.0 | 0.0 | 0.00 | 0.00 | 0.00 | 58 | 1016.0 |
| 20260510070506 | 41 | 336 | 0.0 | 0.0 | 0.00 | 0.00 | 0.00 | 57 | 1016.1 |
| 20260510070021 | 41 | 336 | 0.0 | 0.0 | 0.00 | 0.00 | 0.00 | 56 | 1016.1 |
| 20260510065509 | 41 | 336 | 0.0 | 0.0 | 0.00 | 0.00 | 0.00 | 56 | 1016.1 |
| 20260510065007 | 41 | 336 | 0.0 | 1.0 | 0.00 | 0.00 | 0.00 | 56 | 1016.0 |
| 20260510064526 | 41 | 336 | 0.0 | 1.0 | 0.00 | 0.00 | 0.00 | 55 | 1016.1 |
| 20260510064008 | 42 | 336 | 0.0 | 0.0 | 0.00 | 0.00 | 0.00 | 54 | 1016.0 |
| 20260510063512 | 42 | 336 | 0.0 | 0.0 | 0.00 | 0.00 | 0.00 | 53 | 1016.1 |
| 20260510063033 | 42 | 336 | 0.0 | 0.0 | 0.00 | 0.00 | 0.00 | 52 | 1016.1 |
| 20260510062507 | 42 | 336 | 0.0 | 0.0 | 0.00 | 0.00 | 0.00 | 52 | 1016.0 |
| 20260510062009 | 42 | 336 | 0.0 | 0.0 | 0.00 | 0.00 | 0.00 | 51 | 1016.0 |
| 20260510061526 | 42 | 336 | 0.0 | 0.0 | 0.00 | 0.00 | 0.00 | 51 | 1016.0 |
| 20260510061003 | 43 | 336 | 0.0 | 1.0 | 0.00 | 0.00 | 0.00 | 51 | 1016.0 |
| 20260510060502 | 43 | 336 | 0.0 | 1.0 | 0.00 | 0.00 | 0.00 | 51 | 1015.9 |
| 20260510060006 | 43 | 330 | 0.0 | 1.0 | 0.00 | 0.00 | 0.00 | 51 | 1015.9 |
| 20260510055503 | 43 | 330 | 0.0 | 1.0 | 0.00 | 0.00 | 0.00 | 51 | 1015.8 |
| 20260510055003 | 43 | 330 | 0.0 | 3.0 | 0.00 | 0.00 | 0.00 | 51 | 1015.7 |
| 20260510054503 | 43 | 330 | 0.0 | 3.0 | 0.00 | 0.00 | 0.00 | 51 | 1015.6 |
| 20260510054003 | 43 | 360 | 0.0 | 3.0 | 0.00 | 0.00 | 0.00 | 51 | 1015.6 |
| 20260510053504 | 44 | 329 | 0.0 | 3.0 | 0.00 | 0.00 | 0.00 | 50 | 1015.4 |
| 20260510053012 | 44 | 338 | 0.0 | 2.0 | 0.00 | 0.00 | 0.00 | 50 | 1015.4 |
| 20260510052503 | 44 | 352 | 0.0 | 2.0 | 0.00 | 0.00 | 0.00 | 50 | 1015.3 |
| 20260510052003 | 44 | 342 | 0.0 | 0.0 | 0.00 | 0.00 | 0.00 | 50 | 1015.3 |
| 20260510051506 | 44 | 342 | 0.0 | 0.0 | 0.00 | 0.00 | 0.00 | 49 | 1015.2 |
| 20260510051004 | 44 | 342 | 0.0 | 1.0 | 0.00 | 0.00 | 0.00 | 49 | 1015.2 |
| 20260510050506 | 44 | 342 | 0.0 | 2.0 | 0.00 | 0.00 | 0.00 | 49 | 1015.1 |
| 20260510050005 | 44 | 342 | 0.0 | 2.0 | 0.00 | 0.00 | 0.00 | 49 | 1015.0 |
| 20260510045504 | 44 | 9 | 0.0 | 3.0 | 0.00 | 0.00 | 0.00 | 49 | 1014.9 |
| 20260510045008 | 44 | 325 | 1.0 | 3.0 | 0.00 | 0.00 | 0.00 | 49 | 1014.8 |
| 20260510044504 | 44 | 19 | 0.0 | 3.0 | 0.00 | 0.00 | 0.00 | 49 | 1014.7 |
| 20260510044003 | 44 | 335 | 0.0 | 2.0 | 0.00 | 0.00 | 0.00 | 49 | 1014.6 |
| 20260510043503 | 44 | 335 | 0.0 | 2.0 | 0.00 | 0.00 | 0.00 | 49 | 1014.6 |
| 20260510043004 | 44 | 298 | 0.0 | 2.0 | 0.00 | 0.00 | 0.00 | 49 | 1014.6 |
| 20260510042503 | 45 | 298 | 0.0 | 1.0 | 0.00 | 0.00 | 0.00 | 49 | 1014.6 |
| 20260510042003 | 45 | 296 | 0.0 | 1.0 | 0.00 | 0.00 | 0.00 | 49 | 1014.5 |
| 20260510041507 | 45 | 296 | 0.0 | 1.0 | 0.00 | 0.00 | 0.00 | 48 | 1014.5 |
| 20260510041004 | 45 | 296 | 0.0 | 1.0 | 0.00 | 0.00 | 0.00 | 48 | 1014.4 |
| 20260510040504 | 45 | 296 | 0.0 | 1.0 | 0.00 | 0.00 | 0.00 | 48 | 1014.4 |
| 20260510040015 | 45 | 300 | 0.0 | 1.0 | 0.00 | 0.00 | 0.00 | 48 | 1014.3 |
| 20260510035504 | 45 | 300 | 0.0 | 1.0 | 0.00 | 0.00 | 0.00 | 48 | 1014.2 |
| 20260510035003 | 45 | 297 | 0.0 | 1.0 | 0.00 | 0.00 | 0.00 | 48 | 1014.2 |
| 20260510034508 | 45 | 297 | 0.0 | 3.0 | 0.00 | 0.00 | 0.00 | 48 | 1014.1 |
| 20260510034006 | 45 | 297 | 0.0 | 3.0 | 0.00 | 0.00 | 0.00 | 48 | 1014.2 |
| 20260510033506 | 45 | 325 | 0.0 | 3.0 | 0.00 | 0.00 | 0.00 | 48 | 1014.1 |
| 20260510033008 | 45 | 323 | 0.0 | 3.0 | 0.00 | 0.00 | 0.00 | 48 | 1014.1 |
| 20260510032503 | 45 | 325 | 0.0 | 2.0 | 0.00 | 0.00 | 0.00 | 48 | 1014.0 |
| 20260510032004 | 45 | 332 | 0.0 | 0.0 | 0.00 | 0.00 | 0.00 | 48 | 1013.9 |
| 20260510031507 | 45 | 332 | 0.0 | 0.0 | 0.00 | 0.00 | 0.00 | 48 | 1013.9 |
| 20260510031004 | 46 | 332 | 0.0 | 0.0 | 0.00 | 0.00 | 0.00 | 47 | 1013.9 |
| 20260510030507 | 46 | 332 | 0.0 | 0.0 | 0.00 | 0.00 | 0.00 | 47 | 1013.8 |
| 20260510030012 | 46 | 332 | 0.0 | 0.0 | 0.00 | 0.00 | 0.00 | 46 | 1013.7 |
| 20260510025505 | 47 | 332 | 0.0 | 0.0 | 0.00 | 0.00 | 0.00 | 46 | 1013.6 |
| 20260510025004 | 47 | 332 | 0.0 | 0.0 | 0.00 | 0.00 | 0.00 | 45 | 1013.5 |
| 20260510024514 | 47 | 332 | 0.0 | 0.0 | 0.00 | 0.00 | 0.00 | 45 | 1013.4 |
| 20260510024006 | 48 | 332 | 0.0 | 0.0 | 0.00 | 0.00 | 0.00 | 44 | 1013.3 |
| 20260510023504 | 48 | 332 | 0.0 | 0.0 | 0.00 | 0.00 | 0.00 | 43 | 1013.2 |
| 20260510023017 | 49 | 332 | 0.0 | 0.0 | 0.00 | 0.00 | 0.00 | 43 | 1013.1 |
| 20260510022507 | 49 | 332 | 0.0 | 1.0 | 0.00 | 0.00 | 0.00 | 41 | 1013.0 |
| 20260510022004 | 49 | 332 | 0.0 | 1.0 | 0.00 | 0.00 | 0.00 | 41 | 1012.9 |
| 20260510021523 | 50 | 332 | 0.0 | 1.0 | 0.00 | 0.00 | 0.00 | 40 | 1012.9 |
| 20260510021005 | 50 | 332 | 0.0 | 1.0 | 0.00 | 0.00 | 0.00 | 40 | 1012.8 |
| 20260510020504 | 51 | 332 | 0.0 | 1.0 | 0.00 | 0.00 | 0.00 | 38 | 1012.7 |
| 20260510020006 | 51 | 332 | 0.0 | 1.0 | 0.00 | 0.00 | 0.00 | 38 | 1012.5 |
| 20260510015504 | 52 | 332 | 0.0 | 1.0 | 0.00 | 0.00 | 0.00 | 37 | 1012.5 |
| 20260510015005 | 52 | 332 | 0.0 | 1.0 | 0.00 | 0.00 | 0.00 | 37 | 1012.3 |
| 20260510014506 | 53 | 332 | 0.0 | 3.0 | 0.00 | 0.00 | 0.00 | 36 | 1012.3 |
| 20260510014004 | 53 | 332 | 0.0 | 3.0 | 0.00 | 0.00 | 0.00 | 35 | 1012.2 |
| 20260510013504 | 53 | 9 | 0.0 | 2.0 | 0.00 | 0.00 | 0.00 | 34 | 1012.1 |
| 20260510013017 | 54 | 360 | 0.0 | 4.0 | 0.00 | 0.00 | 0.00 | 34 | 1011.9 |
| 20260510012505 | 54 | 5 | 0.0 | 4.0 | 0.00 | 0.00 | 0.00 | 34 | 1011.8 |
| 20260510012005 | 54 | 14 | 0.0 | 5.0 | 0.00 | 0.00 | 0.00 | 33 | 1011.7 |
| 20260510011522 | 55 | 327 | 2.0 | 6.0 | 0.00 | 0.00 | 0.00 | 32 | 1011.5 |
| 20260510011004 | 55 | 349 | 2.0 | 6.0 | 0.00 | 0.00 | 0.00 | 31 | 1011.4 |
| 20260510010504 | 55 | 15 | 1.0 | 6.0 | 0.00 | 0.00 | 0.00 | 32 | 1011.3 |
| 20260510010015 | 55 | 352 | 1.0 | 6.0 | 0.00 | 0.00 | 0.00 | 31 | 1011.2 |
| 20260510005509 | 56 | 352 | 1.0 | 5.0 | 0.00 | 0.00 | 0.00 | 31 | 1011.1 |
| 20260510005004 | 56 | 333 | 1.0 | 8.0 | 0.00 | 0.00 | 0.00 | 31 | 1011.1 |
| 20260510004505 | 56 | 349 | 1.0 | 8.0 | 0.00 | 0.00 | 0.00 | 31 | 1011.0 |
| 20260510004009 | 56 | 303 | 1.0 | 10.0 | 0.00 | 0.00 | 0.00 | 31 | 1011.0 |
| 20260510003503 | 57 | 360 | 3.0 | 10.0 | 0.00 | 0.00 | 0.00 | 30 | 1011.0 |
| 20260510003010 | 57 | 342 | 2.0 | 7.0 | 0.00 | 0.00 | 0.00 | 31 | 1010.8 |
| 20260510002504 | 57 | 10 | 2.0 | 9.0 | 0.00 | 0.00 | 0.00 | 30 | 1010.8 |
| 20260510002005 | 57 | 352 | 1.0 | 9.0 | 0.00 | 0.00 | 0.00 | 30 | 1010.7 |
| 20260510001507 | 57 | 24 | 2.0 | 11.0 | 0.00 | 0.00 | 0.00 | 30 | 1010.7 |
| 20260510001006 | 57 | 334 | 3.0 | 11.0 | 0.00 | 0.00 | 0.00 | 30 | 1010.7 |
| 20260510000505 | 57 | 298 | 3.0 | 8.0 | 0.00 | 0.00 | 0.00 | 30 | 1010.5 |
| 20260510000022 | 58 | 317 | 3.0 | 11.0 | 0.00 | 0.00 | 0.00 | 30 | 1010.5 |
| 20260509235504 | 58 | 315 | 1.0 | 11.0 | 0.00 | 0.00 | 0.00 | 30 | 1010.4 |
| 20260509235009 | 58 | 301 | 3.0 | 12.0 | 0.00 | 0.00 | 0.00 | 30 | 1010.4 |
| 20260509234527 | 58 | 352 | 5.0 | 12.0 | 0.00 | 0.00 | 0.00 | 29 | 1010.3 |
| 20260509234005 | 58 | 255 | 3.0 | 12.0 | 0.00 | 0.00 | 0.00 | 29 | 1010.3 |
| 20260509233506 | 58 | 5 | 5.0 | 11.0 | 0.00 | 0.00 | 0.00 | 28 | 1010.2 |
| 20260509233009 | 58 | 330 | 2.0 | 10.0 | 0.00 | 0.00 | 0.00 | 29 | 1010.2 |
| 20260509232503 | 59 | 283 | 3.0 | 10.0 | 0.00 | 0.00 | 0.00 | 28 | 1010.1 |
| 20260509232003 | 59 | 24 | 3.0 | 10.0 | 0.00 | 0.00 | 0.00 | 28 | 1010.1 |
| 20260509231510 | 59 | 316 | 3.0 | 10.0 | 0.00 | 0.00 | 0.00 | 28 | 1010.1 |
| 20260509231006 | 59 | 342 | 3.0 | 11.0 | 0.00 | 0.00 | 0.00 | 28 | 1010.0 |
| 20260509230507 | 59 | 23 | 2.0 | 20.0 | 0.00 | 0.00 | 0.00 | 29 | 1009.9 |
| 20260509230014 | 60 | 360 | 3.0 | 20.0 | 0.00 | 0.00 | 0.00 | 28 | 1009.9 |
| 20260509225507 | 60 | 42 | 2.0 | 11.0 | 0.00 | 0.00 | 0.00 | 28 | 1009.8 |
| 20260509225007 | 60 | 348 | 3.0 | 13.0 | 0.00 | 0.00 | 0.00 | 27 | 1009.8 |
| 20260509224508 | 60 | 290 | 1.0 | 13.0 | 0.00 | 0.00 | 0.00 | 27 | 1009.8 |
| 20260509224007 | 61 | 144 | 3.0 | 13.0 | 0.00 | 0.00 | 0.00 | 26 | 1009.6 |
| 20260509223509 | 61 | 5 | 3.0 | 11.0 | 0.00 | 0.00 | 0.00 | 29 | 1009.7 |
| 20260509223029 | 61 | 352 | 3.0 | 14.0 | 0.00 | 0.00 | 0.00 | 28 | 1009.6 |
| 20260509222504 | 61 | 339 | 4.0 | 14.0 | 0.00 | 0.00 | 0.00 | 28 | 1009.5 |
| 20260509222006 | 62 | 246 | 2.0 | 12.0 | 0.00 | 0.00 | 0.00 | 29 | 1009.4 |
| 20260509221511 | 62 | 302 | 4.0 | 12.0 | 0.00 | 0.00 | 0.00 | 28 | 1009.4 |
| 20260509221003 | 62 | 334 | 2.0 | 10.0 | 0.00 | 0.00 | 0.00 | 28 | 1009.3 |
| 20260509220504 | 62 | 341 | 1.0 | 12.0 | 0.00 | 0.00 | 0.00 | 29 | 1009.3 |
| 20260509220015 | 62 | 101 | 4.0 | 12.0 | 0.00 | 0.00 | 0.00 | 29 | 1009.4 |
| 20260509215507 | 62 | 55 | 3.0 | 11.0 | 0.00 | 0.00 | 0.00 | 30 | 1009.3 |
| 20260509215003 | 62 | 344 | 2.0 | 12.0 | 0.00 | 0.00 | 0.00 | 28 | 1009.2 |
| 20260509214519 | 62 | 252 | 3.0 | 12.0 | 0.00 | 0.00 | 0.00 | 29 | 1009.2 |
| 20260509214011 | 63 | 333 | 3.0 | 14.0 | 0.00 | 0.00 | 0.00 | 28 | 1009.2 |
| 20260509213508 | 63 | 330 | 4.0 | 14.0 | 0.00 | 0.00 | 0.00 | 29 | 1009.2 |
| 20260509213019 | 63 | 191 | 3.0 | 15.0 | 0.00 | 0.00 | 0.00 | 28 | 1009.2 |
| 20260509212509 | 63 | 349 | 4.0 | 15.0 | 0.00 | 0.00 | 0.00 | 27 | 1009.1 |
| 20260509212011 | 63 | 286 | 3.0 | 13.0 | 0.00 | 0.00 | 0.00 | 29 | 1009.0 |
| 20260509211514 | 63 | 5 | 5.0 | 18.0 | 0.00 | 0.00 | 0.00 | 27 | 1009.0 |
| 20260509211012 | 63 | 325 | 4.0 | 19.0 | 0.00 | 0.00 | 0.00 | 28 | 1009.0 |
| 20260509210507 | 63 | 321 | 5.0 | 19.0 | 0.00 | 0.00 | 0.00 | 28 | 1008.9 |
| 20260509210017 | 64 | 239 | 6.0 | 15.0 | 0.00 | 0.00 | 0.00 | 27 | 1008.9 |
| 20260509205507 | 64 | 69 | 4.0 | 15.0 | 0.00 | 0.00 | 0.00 | 28 | 1008.7 |
| 20260509205008 | 64 | 299 | 4.0 | 11.0 | 0.00 | 0.00 | 0.00 | 28 | 1008.8 |
| 20260509204516 | 64 | 352 | 3.0 | 11.0 | 0.00 | 0.00 | 0.00 | 28 | 1008.8 |
| 20260509204007 | 64 | 195 | 3.0 | 14.0 | 0.00 | 0.00 | 0.00 | 28 | 1008.8 |
| 20260509203507 | 64 | 329 | 5.0 | 14.0 | 0.00 | 0.00 | 0.00 | 27 | 1008.8 |
| 20260509203022 | 64 | 23 | 3.0 | 13.0 | 0.00 | 0.00 | 0.00 | 29 | 1008.7 |
| 20260509202507 | 64 | 340 | 4.0 | 12.0 | 0.00 | 0.00 | 0.00 | 31 | 1008.7 |
| 20260509202009 | 63 | 315 | 3.0 | 12.0 | 0.00 | 0.00 | 0.00 | 30 | 1008.6 |
| 20260509201522 | 64 | 49 | 5.0 | 14.0 | 0.00 | 0.00 | 0.00 | 30 | 1008.5 |
| 20260509201012 | 64 | 24 | 5.0 | 14.0 | 0.00 | 0.00 | 0.00 | 31 | 1008.4 |
| 20260509200510 | 64 | 267 | 4.0 | 13.0 | 0.00 | 0.00 | 0.00 | 31 | 1008.3 |
| 20260509200020 | 64 | 269 | 3.0 | 14.0 | 0.00 | 0.00 | 0.00 | 31 | 1008.4 |
| 20260509195516 | 64 | 275 | 4.0 | 14.0 | 0.00 | 0.00 | 0.00 | 30 | 1008.3 |
| 20260509195010 | 64 | 331 | 4.0 | 13.0 | 0.00 | 0.00 | 0.00 | 30 | 1008.3 |
| 20260509194515 | 64 | 306 | 4.0 | 19.0 | 0.00 | 0.00 | 0.00 | 29 | 1008.2 |
| 20260509194008 | 64 | 201 | 4.0 | 19.0 | 0.00 | 0.00 | 0.00 | 30 | 1008.2 |
| 20260509193508 | 64 | 182 | 2.0 | 18.0 | 0.00 | 0.00 | 0.00 | 30 | 1008.2 |
| 20260509193019 | 64 | 14 | 7.0 | 18.0 | 0.00 | 0.00 | 0.00 | 30 | 1008.1 |
| 20260509192507 | 64 | 217 | 3.0 | 16.0 | 0.00 | 0.00 | 0.00 | 30 | 1008.1 |
| 20260509192007 | 64 | 336 | 6.0 | 16.0 | 0.00 | 0.00 | 0.00 | 29 | 1008.1 |
| 20260509191523 | 64 | 268 | 3.0 | 13.0 | 0.00 | 0.00 | 0.00 | 30 | 1007.9 |
| 20260509191007 | 64 | 319 | 2.0 | 13.0 | 0.00 | 0.00 | 0.00 | 30 | 1008.0 |
| 20260509190503 | 64 | 155 | 3.0 | 14.0 | 0.00 | 0.00 | 0.00 | 33 | 1008.0 |
| 20260509190007 | 64 | 93 | 3.0 | 16.0 | 0.00 | 0.00 | 0.00 | 32 | 1007.9 |
| 20260509185504 | 64 | 19 | 3.0 | 16.0 | 0.00 | 0.00 | 0.00 | 32 | 1007.9 |
| 20260509185004 | 64 | 331 | 3.0 | 14.0 | 0.00 | 0.00 | 0.00 | 33 | 1007.8 |
| 20260509184505 | 64 | 277 | 2.0 | 14.0 | 0.00 | 0.00 | 0.00 | 33 | 1007.7 |
| 20260509184007 | 65 | 268 | 5.0 | 13.0 | 0.00 | 0.00 | 0.00 | 33 | 1007.9 |
| 20260509183508 | 65 | 342 | 3.0 | 10.0 | 0.00 | 0.00 | 0.00 | 35 | 1007.6 |